This is the latest recevied weather packets stored in our database for station/object WY7EM. If no packets are shown the sender has not sent any weather packets the latest 10 day(s).
| Time | Temp. | Humidity | Pressure | Rain* | Wind** | Luminosity | Snow |
|---|---|---|---|---|---|---|---|
| 1788158294 | 71° F | 67% | 762.7 mmHg | 0 in | - | 0 W/m² | - |
| 1788157989 | 71° F | 67% | 762.8 mmHg | 0 in | - | 0 W/m² | - |
| 1788157683 | 71° F | 65% | 762.7 mmHg | 0 in | - | 0 W/m² | - |
| 1788157379 | 71° F | 65% | 762.8 mmHg | 0 in | - | 0 W/m² | - |
| 1788157077 | 71° F | 67% | 762.8 mmHg | 0 in | - | 0 W/m² | - |
| 1788156777 | 71° F | 64% | 762.9 mmHg | 0 in | - | 0 W/m² | - |
| 1788156473 | 71° F | 67% | 762.7 mmHg | 0 in | - | 0 W/m² | - |
| 1788156173 | 72° F | 66% | 762.7 mmHg | 0 in | - | 0 W/m² | - |
| 1788155872 | 71° F | 65% | 762.8 mmHg | 0 in | - | 0 W/m² | - |
| 1788155567 | 71° F | 67% | 762.9 mmHg | 0 in | - | 0 W/m² | - |
| 1788155262 | 71° F | 66% | 762.9 mmHg | 0 in | - | 0 W/m² | - |
| 1788154957 | 71° F | 67% | 762.8 mmHg | 0 in | - | 0 W/m² | - |
| 1788154656 | 71° F | 66% | 762.7 mmHg | 0 in | - | 0 W/m² | - |
| 1788154356 | 72° F | 66% | 762.7 mmHg | 0 in | - | 0 W/m² | - |
| 1788154056 | 72° F | 65% | 762.7 mmHg | 0 in | - | 0 W/m² | - |
| 1788153754 | 72° F | 65% | 762.7 mmHg | 0 in | - | 0 W/m² | - |
| 1788153453 | 72° F | 66% | 762.7 mmHg | 0 in | - | 0 W/m² | - |
| 1788153152 | 72° F | 64% | 762.8 mmHg | 0 in | - | 0 W/m² | - |
| 1788152846 | 72° F | 64% | 762.8 mmHg | 0 in | - | 0 W/m² | - |
| 1788152540 | 73° F | 62% | 762.7 mmHg | 0 in | - | 0 W/m² | - |
| 1788152235 | 73° F | 58% | 762.7 mmHg | 0 in | - | 0 W/m² | - |
| 1788151930 | 73° F | 56% | 762.7 mmHg | 0 in | - | 0 W/m² | - |
| 1788151629 | 74° F | 56% | 762.7 mmHg | 0 in | - | 0 W/m² | - |
| 1788151325 | 74° F | 53% | 762.4 mmHg | 0 in | - | 0 W/m² | - |
| 1788151020 | 73° F | 53% | 762.4 mmHg | 0 in | - | 0 W/m² | - |
* Rain latest hour (hover to see other rain measurements)
** Current wind speed in m/s (hover to see current wind gust speed)